SUCHAI (42788 NORAD) Tracking and Keplerian Element Data

This shows tracking and keplerian element data for the satellite.

Feedback or suggestion? Click here.




ElementValue
Catalog42788
NameSUCHAI
Epoch Orbit30111
Epoch Day324.67041861
Epoch Year2022
RAAN3.8793
Inclination97.1813
Eccentricity0.0010014
Argument of Perigee116.1614
Mean Anonmoly244.0661
Mean Motion15.35640034
Decay Rate0.00015768
L11 42788U 17036Z 22324.67041861 .00015768 00000+0 45617-3 0 9994
L22 42788 97.1813 3.8793 0010014 116.1614 244.0661 15.35640034301116



Live tracking and technical data element details for SUCHAI (NORAD 42788). SUCHAI can be tracked NOW for your location showing map with azimuth and elevation plus other details from your city location.







IsCatalogInMostPopularTable: catalog: 42788, numindb: 492
Update: records affected: 1



GetName: 42788 SUCHAI

Hit Count: updated at: Mon, 28 Nov 2022 04:24:51 GMT